User: anonymous   Login
Location: Unspecified
(0.0000°N, 0.0000°E)
Time: 00:01:46
(UTC+00:00)
Language:

PEGASUS - Orbit

View from above orbital plane
View from above orbital plane
View from above satellite
View from above satellite

Ground track
Ground track

The orbit data is extracted from the following two-line orbital elements,

1 42784U 17036V   21023.41124191  .00001324  00000-0  57681-4 0  9994
2 42784  97.2728  77.0363 0010865 339.7039  20.3765 15.23869946199265
Epoch (UTC): 23 January 2021 09:52:11
Eccentricity: 0.0010865
inclination: 97.2728°
perigee height: 487 km
apogee height: 501 km
right ascension of ascending node: 77.0363°
argument of perigee: 339.7039°
revolutions per day: 15.23869946
mean anomaly at epoch: 20.3765°
orbit number at epoch: 19926

The dashed part of the orbit path shows where the satellite is in the earth's shadow,  

DLR